Time,TemperatureF,DewpointF,PressureIn,WindDirection,WindDirectionDegrees,WindSpeedMPH,WindSpeedGustMPH,Humidity,HourlyPrecipIn,Conditions,Clouds,dailyrainin,SolarRadiationWatts/m^2,SoftwareType,DateUTC
2013-02-12 00:11:00,22.0,16.0,-100.00,NNW,348,1.0,3.0,79,0.00,,,0.00,0.000000,,2013-02-12 09:11:00,
2013-02-12 00:21:00,22.0,16.0,-100.00,NNW,348,1.0,3.0,79,0.00,,,0.00,0.000000,,2013-02-12 09:21:00,
2013-02-12 00:31:00,22.0,16.0,-100.00,NNW,348,1.0,3.0,79,0.00,,,0.00,0.000000,,2013-02-12 09:31:00,
2013-02-12 00:41:00,22.0,16.0,-100.00,NNW,348,1.0,3.0,79,0.00,,,0.00,0.000000,,2013-02-12 09:41:00,
2013-02-12 00:51:00,22.0,16.0,-100.00,NNW,348,1.0,3.0,79,0.00,,,0.00,0.000000,,2013-02-12 09:51:00,
2013-02-12 01:11:00,22.0,16.0,-100.00,North,359,1.0,6.0,77,0.00,,,0.00,0.000000,,2013-02-12 10:11:00,
2013-02-12 01:21:00,22.0,16.0,-100.00,North,359,1.0,6.0,77,0.00,,,0.00,0.000000,,2013-02-12 10:21:00,
2013-02-12 01:31:00,22.0,16.0,-100.00,North,359,1.0,6.0,77,0.00,,,0.00,0.000000,,2013-02-12 10:31:00,
2013-02-12 01:43:00,22.0,16.0,-100.00,North,359,1.0,6.0,77,0.00,,,0.00,0.000000,,2013-02-12 10:43:00,
2013-02-12 01:51:00,22.0,16.0,-100.00,North,359,1.0,6.0,77,0.00,,,0.00,0.000000,,2013-02-12 10:51:00,
2013-02-12 01:52:00,23.0,19.0,-100.00,NNE,19,2.0,6.0,84,0.00,,,0.00,0.000000,,2013-02-12 10:52:00,
2013-02-12 02:11:00,23.0,19.0,-100.00,NNE,19,2.0,6.0,84,0.00,,,0.00,0.000000,,2013-02-12 11:11:00,
2013-02-12 02:21:00,23.0,19.0,-100.00,NNE,19,2.0,6.0,84,0.00,,,0.00,0.000000,,2013-02-12 11:21:00,
2013-02-12 02:31:00,23.0,19.0,-100.00,NNE,19,2.0,6.0,84,0.00,,,0.00,0.000000,,2013-02-12 11:31:00,
2013-02-12 02:41:00,23.0,19.0,-100.00,NNE,19,2.0,6.0,84,0.00,,,0.00,0.000000,,2013-02-12 11:41:00,
2013-02-12 02:52:00,21.0,18.0,-100.00,NNE,24,1.0,4.0,87,0.00,,,-99.99,0.000000,,2013-02-12 11:52:00,
2013-02-12 03:11:00,21.0,18.0,-100.00,NNE,24,1.0,4.0,87,0.00,,,-99.99,0.000000,,2013-02-12 12:11:00,
2013-02-12 03:21:00,21.0,18.0,-100.00,NNE,24,1.0,4.0,87,0.00,,,-99.99,0.000000,,2013-02-12 12:21:00,
2013-02-12 03:32:00,21.0,18.0,-100.00,NNE,24,1.0,4.0,87,0.00,,,-99.99,0.000000,,2013-02-12 12:32:00,
2013-02-12 03:42:00,21.0,18.0,-100.00,NNE,24,1.0,4.0,87,0.00,,,-99.99,0.000000,,2013-02-12 12:42:00,
2013-02-12 04:11:00,17.0,15.0,-100.00,North,1,0.0,4.0,92,0.00,,,0.00,0.000000,,2013-02-12 13:11:00,
2013-02-12 04:52:00,20.0,19.0,-100.00,NNE,13,2.0,6.0,97,-99.99,,,0.00,0.000000,,2013-02-12 13:52:00,
2013-02-12 05:11:00,20.0,19.0,-100.00,NNE,13,2.0,6.0,97,-99.99,,,0.00,0.000000,,2013-02-12 14:11:00,
2013-02-12 05:21:00,20.0,19.0,-100.00,NNE,13,2.0,6.0,97,-99.99,,,0.00,0.000000,,2013-02-12 14:21:00,
2013-02-12 05:31:00,20.0,19.0,-100.00,NNE,13,2.0,6.0,97,-99.99,,,0.00,0.000000,,2013-02-12 14:31:00,
2013-02-12 05:41:00,20.0,19.0,-100.00,NNE,13,2.0,6.0,97,-99.99,,,0.00,0.000000,,2013-02-12 14:41:00,
2013-02-12 05:52:00,21.0,20.0,-100.00,North,5,3.0,8.0,95,0.00,,,-99.99,0.000000,,2013-02-12 14:52:00,
2013-02-12 06:11:00,21.0,20.0,-100.00,North,5,3.0,8.0,95,0.00,,,-99.99,0.000000,,2013-02-12 15:11:00,
2013-02-12 06:21:00,21.0,20.0,-100.00,North,5,3.0,8.0,95,0.00,,,-99.99,0.000000,,2013-02-12 15:21:00,
2013-02-12 06:32:00,21.0,20.0,-100.00,North,5,3.0,8.0,95,0.00,,,-99.99,0.000000,,2013-02-12 15:32:00,
2013-02-12 06:42:00,21.0,20.0,-100.00,North,5,3.0,8.0,95,0.00,,,-99.99,0.000000,,2013-02-12 15:42:00,
2013-02-12 07:22:00,22.0,21.0,-100.00,North,2,2.0,6.0,94,0.00,,,0.00,0.000000,,2013-02-12 16:22:00,
2013-02-12 07:31:00,22.0,21.0,-100.00,North,2,2.0,6.0,94,0.00,,,0.00,0.000000,,2013-02-12 16:31:00,
2013-02-12 07:41:00,22.0,21.0,-100.00,North,2,2.0,6.0,94,0.00,,,0.00,0.000000,,2013-02-12 16:41:00,
2013-02-12 07:51:00,22.0,21.0,-100.00,North,2,2.0,6.0,94,0.00,,,0.00,0.000000,,2013-02-12 16:51:00,
2013-02-12 07:52:00,21.0,20.0,-100.00,NNE,16,2.0,6.0,95,0.00,,,0.00,0.000000,,2013-02-12 16:52:00,
2013-02-12 08:11:00,21.0,20.0,-100.00,NNE,16,2.0,6.0,95,0.00,,,0.00,0.000000,,2013-02-12 17:11:00,
2013-02-12 08:21:00,21.0,20.0,-100.00,NNE,16,2.0,6.0,95,0.00,,,0.00,0.000000,,2013-02-12 17:21:00,
2013-02-12 08:31:00,21.0,20.0,-100.00,NNE,16,2.0,6.0,95,0.00,,,0.00,0.000000,,2013-02-12 17:31:00,
2013-02-12 08:41:00,21.0,20.0,-100.00,NNE,16,2.0,6.0,95,0.00,,,0.00,0.000000,,2013-02-12 17:41:00,
2013-02-12 09:11:00,21.0,20.0,-100.00,North,359,2.0,8.0,94,0.00,,,0.00,0.000000,,2013-02-12 18:11:00,
2013-02-12 09:22:00,21.0,20.0,-100.00,North,359,2.0,8.0,94,0.00,,,0.00,0.000000,,2013-02-12 18:22:00,
2013-02-12 09:31:00,21.0,20.0,-100.00,North,359,2.0,8.0,94,0.00,,,0.00,0.000000,,2013-02-12 18:31:00,
2013-02-12 09:41:00,21.0,20.0,-100.00,North,359,2.0,8.0,94,0.00,,,0.00,0.000000,,2013-02-12 18:41:00,
2013-02-12 09:51:00,21.0,20.0,-100.00,North,359,2.0,8.0,94,0.00,,,0.00,0.000000,,2013-02-12 18:51:00,
2013-02-12 10:11:00,21.0,20.0,-100.00,North,350,1.0,5.0,95,0.00,,,0.00,5.000000,,2013-02-12 19:11:00,
2013-02-12 10:21:00,21.0,20.0,-100.00,North,350,1.0,5.0,95,0.00,,,0.00,5.000000,,2013-02-12 19:21:00,
2013-02-12 10:31:00,21.0,20.0,-100.00,North,350,1.0,5.0,95,0.00,,,0.00,5.000000,,2013-02-12 19:31:00,
2013-02-12 10:41:00,21.0,20.0,-100.00,North,350,1.0,5.0,95,0.00,,,0.00,5.000000,,2013-02-12 19:41:00,
2013-02-12 10:51:00,21.0,20.0,-100.00,North,350,1.0,5.0,95,0.00,,,0.00,5.000000,,2013-02-12 19:51:00,
2013-02-12 11:11:00,23.0,21.0,-100.00,North,351,2.0,5.0,93,0.00,,,0.00,19.000000,,2013-02-12 20:11:00,
2013-02-12 11:21:00,23.0,21.0,-100.00,North,351,2.0,5.0,93,0.00,,,0.00,19.000000,,2013-02-12 20:21:00,
2013-02-12 11:31:00,23.0,21.0,-100.00,North,351,2.0,5.0,93,0.00,,,0.00,19.000000,,2013-02-12 20:31:00,
2013-02-12 11:41:00,23.0,21.0,-100.00,North,351,2.0,5.0,93,0.00,,,0.00,19.000000,,2013-02-12 20:41:00,
2013-02-12 11:51:00,23.0,21.0,-100.00,North,351,2.0,5.0,93,0.00,,,0.00,19.000000,,2013-02-12 20:51:00,
2013-02-12 12:21:00,24.0,21.0,-100.00,North,353,1.0,6.0,89,0.00,,,0.00,36.000000,,2013-02-12 21:21:00,
2013-02-12 12:31:00,24.0,21.0,-100.00,North,353,1.0,6.0,89,0.00,,,0.00,36.000000,,2013-02-12 21:31:00,
2013-02-12 12:41:00,24.0,21.0,-100.00,North,353,1.0,6.0,89,0.00,,,0.00,36.000000,,2013-02-12 21:41:00,
2013-02-12 12:51:00,24.0,21.0,-100.00,North,353,1.0,6.0,89,0.00,,,0.00,36.000000,,2013-02-12 21:51:00,
2013-02-12 13:21:00,25.0,22.0,-100.00,NNW,341,1.0,7.0,89,0.00,,,0.00,35.000000,,2013-02-12 22:21:00,
2013-02-12 13:31:00,25.0,22.0,-100.00,NNW,341,1.0,7.0,89,0.00,,,0.00,35.000000,,2013-02-12 22:31:00,
2013-02-12 13:41:00,25.0,22.0,-100.00,NNW,341,1.0,7.0,89,0.00,,,0.00,35.000000,,2013-02-12 22:41:00,
2013-02-12 13:51:00,25.0,22.0,-100.00,NNW,341,1.0,7.0,89,0.00,,,0.00,35.000000,,2013-02-12 22:51:00,
2013-02-12 13:52:00,26.0,23.0,-100.00,North,2,2.0,7.0,88,0.00,,,0.00,45.000000,,2013-02-12 22:52:00,
2013-02-12 14:11:00,26.0,23.0,-100.00,North,2,2.0,7.0,88,0.00,,,0.00,45.000000,,2013-02-12 23:11:00,
2013-02-12 14:21:00,26.0,23.0,-100.00,North,2,2.0,7.0,88,0.00,,,0.00,45.000000,,2013-02-12 23:21:00,
2013-02-12 14:31:00,26.0,23.0,-100.00,North,2,2.0,7.0,88,0.00,,,0.00,45.000000,,2013-02-12 23:31:00,
2013-02-12 14:41:00,26.0,23.0,-100.00,North,2,2.0,7.0,88,0.00,,,0.00,45.000000,,2013-02-12 23:41:00,
2013-02-12 15:21:00,26.0,23.0,-100.00,North,6,3.0,9.0,87,0.00,,,0.00,44.000000,,2013-02-13 00:21:00,
2013-02-12 15:32:00,26.0,23.0,-100.00,North,6,3.0,9.0,87,0.00,,,0.00,44.000000,,2013-02-13 00:32:00,
2013-02-12 15:42:00,26.0,23.0,-100.00,North,6,3.0,9.0,87,0.00,,,0.00,44.000000,,2013-02-13 00:42:00,
2013-02-12 15:51:00,26.0,23.0,-100.00,North,6,3.0,9.0,87,0.00,,,0.00,44.000000,,2013-02-13 00:51:00,
2013-02-12 16:42:00,26.0,23.0,-100.00,North,357,3.0,8.0,90,0.00,,,0.00,28.000000,,2013-02-13 01:42:00,
2013-02-12 16:51:00,26.0,23.0,-100.00,North,357,3.0,8.0,90,0.00,,,0.00,28.000000,,2013-02-13 01:51:00,
2013-02-12 16:52:00,27.0,25.0,-100.00,NNW,345,1.0,7.0,91,0.00,,,0.00,19.000000,,2013-02-13 01:52:00,
2013-02-12 17:21:00,27.0,25.0,-100.00,NNW,345,1.0,7.0,91,0.00,,,0.00,19.000000,,2013-02-13 02:21:00,
2013-02-12 17:31:00,27.0,25.0,-100.00,NNW,345,1.0,7.0,91,0.00,,,0.00,19.000000,,2013-02-13 02:31:00,
2013-02-12 17:41:00,27.0,25.0,-100.00,NNW,345,1.0,7.0,91,0.00,,,0.00,19.000000,,2013-02-13 02:41:00,
2013-02-12 18:11:00,26.0,24.0,-100.00,North,350,1.0,6.0,92,0.00,,,0.00,6.000000,,2013-02-13 03:11:00,
2013-02-12 18:21:00,26.0,24.0,-100.00,North,350,1.0,6.0,92,0.00,,,0.00,6.000000,,2013-02-13 03:21:00,
2013-02-12 18:32:00,26.0,24.0,-100.00,North,350,1.0,6.0,92,0.00,,,0.00,6.000000,,2013-02-13 03:32:00,
2013-02-12 18:41:00,26.0,24.0,-100.00,North,350,1.0,6.0,92,0.00,,,0.00,6.000000,,2013-02-13 03:41:00,
2013-02-12 18:51:00,26.0,24.0,-100.00,North,350,1.0,6.0,92,0.00,,,0.00,6.000000,,2013-02-13 03:51:00,
2013-02-12 19:11:00,25.0,24.0,-100.00,NNW,342,1.0,5.0,94,0.00,,,0.00,0.000000,,2013-02-13 04:11:00,
2013-02-12 19:21:00,25.0,24.0,-100.00,NNW,342,1.0,5.0,94,0.00,,,0.00,0.000000,,2013-02-13 04:21:00,
2013-02-12 19:31:00,25.0,24.0,-100.00,NNW,342,1.0,5.0,94,0.00,,,0.00,0.000000,,2013-02-13 04:31:00,
2013-02-12 19:41:00,25.0,24.0,-100.00,NNW,342,1.0,5.0,94,0.00,,,0.00,0.000000,,2013-02-13 04:41:00,
2013-02-12 19:51:00,25.0,24.0,-100.00,NNW,342,1.0,5.0,94,0.00,,,0.00,0.000000,,2013-02-13 04:51:00,
2013-02-12 19:52:00,25.0,24.0,-100.00,North,352,1.0,5.0,95,0.00,,,0.00,0.000000,,2013-02-13 04:52:00,
2013-02-12 20:11:00,25.0,24.0,-100.00,North,352,1.0,5.0,95,0.00,,,0.00,0.000000,,2013-02-13 05:11:00,
2013-02-12 20:22:00,25.0,24.0,-100.00,North,352,1.0,5.0,95,0.00,,,0.00,0.000000,,2013-02-13 05:22:00,
2013-02-12 20:31:00,25.0,24.0,-100.00,North,352,1.0,5.0,95,0.00,,,0.00,0.000000,,2013-02-13 05:31:00,
2013-02-12 20:41:00,25.0,24.0,-100.00,North,352,1.0,5.0,95,0.00,,,0.00,0.000000,,2013-02-13 05:41:00,
2013-02-12 21:11:00,25.0,24.0,-100.00,NNW,333,1.0,5.0,95,0.00,,,0.00,0.000000,,2013-02-13 06:11:00,
2013-02-12 21:21:00,25.0,24.0,-100.00,NNW,333,1.0,5.0,95,0.00,,,0.00,0.000000,,2013-02-13 06:21:00,
2013-02-12 21:31:00,25.0,24.0,-100.00,NNW,333,1.0,5.0,95,0.00,,,0.00,0.000000,,2013-02-13 06:31:00,
2013-02-12 21:41:00,25.0,24.0,-100.00,NNW,333,1.0,5.0,95,0.00,,,0.00,0.000000,,2013-02-13 06:41:00,
2013-02-12 21:51:00,25.0,24.0,-100.00,NNW,333,1.0,5.0,95,0.00,,,0.00,0.000000,,2013-02-13 06:51:00,
2013-02-12 22:21:00,24.0,23.0,-100.00,North,2,2.0,7.0,95,0.00,,,0.00,0.000000,,2013-02-13 07:21:00,
2013-02-12 22:31:00,24.0,23.0,-100.00,North,2,2.0,7.0,95,0.00,,,0.00,0.000000,,2013-02-13 07:31:00,
2013-02-12 22:41:00,24.0,23.0,-100.00,North,2,2.0,7.0,95,0.00,,,0.00,0.000000,,2013-02-13 07:41:00,
2013-02-12 22:51:00,24.0,23.0,-100.00,North,2,2.0,7.0,95,0.00,,,0.00,0.000000,,2013-02-13 07:51:00,
2013-02-12 23:11:00,24.0,23.0,-100.00,NNW,344,1.0,6.0,96,0.00,,,0.00,0.000000,,2013-02-13 08:11:00,
2013-02-12 23:21:00,24.0,23.0,-100.00,NNW,344,1.0,6.0,96,0.00,,,0.00,0.000000,,2013-02-13 08:21:00,
2013-02-12 23:31:00,24.0,23.0,-100.00,NNW,344,1.0,6.0,96,0.00,,,0.00,0.000000,,2013-02-13 08:31:00,
2013-02-12 23:42:00,24.0,23.0,-100.00,NNW,344,1.0,6.0,96,0.00,,,0.00,0.000000,,2013-02-13 08:42:00,
2013-02-12 23:51:00,24.0,23.0,-100.00,NNW,344,1.0,6.0,96,0.00,,,0.00,0.000000,,2013-02-13 08:51:00,